Regional Weather Roundup
Issued by NWS

Home | Current Version | Previous Version | Text Only | Print | Product List | Glossary On
Versions: 1 2 3 4 5 6 7 8 9 10 11 12 13 14 15 16 17 18 19 20 21 22 23 24 25 26 27 28
000
ASUS45 KTFX 290710
RWRMT
MONTANA REGIONAL WEATHER ROUNDUP
NATIONAL WEATHER SERVICE GREAT FALLS MT
100 AM MDT MON AUG 29 2016

NOTE: "FAIR" INDICATES FEW OR NO CLOUDS BELOW 12000 FEET WITH NO
SIGNIFICANT WEATHER AND/OR OBSTRUCTIONS TO VISIBILITY.

MTZ001>007-043-290800-
WEST OF THE DIVIDE

CITY           SKY/WX    TMP DP  RH WIND       PRES   REMARKS
KALISPELL      PTCLDY    49  43  80 NE9       30.16R
MISSOULA       PTCLDY    60  37  42 CALM      30.19R
BUTTE          CLOUDY    53  30  41 SE5       30.31S
MULLAN PASS    CLEAR     57  32  38 S7        30.28S
DEER LODGE       N/A     52  36  54 W3        30.30R
EUREKA           N/A     63  41  45 CALM      30.14S
HAMILTON         N/A     57  41  54 CALM      30.20S
LIBBY            N/A     54  39  58 SE5       30.16R
PLAINS           N/A     55  38  52 CALM      30.14S
RONAN            N/A     49  41  74 CALM      30.19S
THOMPSON FALLS   N/A     52  39  61 CALM      30.18R
$$

MTZ008-052>055-290800-
SOUTHWEST MONTANA

CITY           SKY/WX    TMP DP  RH WIND       PRES   REMARKS
BOZEMAN        CLEAR     56  42  59 CALM      30.26R
DILLON         CLOUDY    63  33  32 CALM      30.27R
W YELLOWSTONE  CLOUDY    46  30  53 CALM      30.38R
ENNIS          PTCLDY    59  34  38 S5        30.34R
THREE FORKS      N/A     50  14  23 CALM      30.21R
TWIN BRIDGES     N/A     68  30  24 N10       30.22R
$$

MTZ009-010-012-014-046-048-049-054-290800-
EAST SLOPES AND CENTRAL MONTANA

CITY           SKY/WX    TMP DP  RH WIND       PRES   REMARKS
CUT BANK       MOCLDY    53  41  63 E3        30.25R
GREAT FALLS    CLOUDY    57  44  62 E3        30.24R
MALMSTROM AFB  CLOUDY    56  45  65 MISG      30.23S
HELENA         CLOUDY    62  42  47 W7        30.23F
CHOTEAU          N/A     54  43  66 CALM      30.27S
CONRAD           N/A     49  46  89 N2        30.24S
$$

MTZ011-013-016-021-045-047-050-051-290800-
NORTH CENTRAL MONTANA

CITY           SKY/WX    TMP DP  RH WIND       PRES   REMARKS
HAVRE          CLOUDY    53  45  74 E8        30.22S
LEWISTOWN      CLEAR     60  45  57 SE8       30.26R
N BAR RANCH      N/A     57  43  58 CALM      30.31R
CHINOOK          N/A     54  45  71 CALM      30.23S
$$

MTZ017>020-022>027-061-062-290800-
NORTHEAST MONTANA

CITY           SKY/WX    TMP DP  RH WIND       PRES   REMARKS
GLASGOW        CLEAR     59  44  57 NE8       30.20R
JORDAN           N/A     64  49  57 N12       30.19R
SIDNEY         MOCLDY    64  50  60 N9        30.16R
WOLF POINT     CLEAR     63  47  55 NE8       30.19R
POPLAR           N/A     61  46  59 N9        30.19R
SCOBEY           N/A     48  40  74 CALM      30.20R
$$

MTZ028>42-056>058-290800-
SOUTHCENTRAL AND SOUTHEAST MONTANA

CITY           SKY/WX    TMP DP  RH WIND       PRES   REMARKS
BAKER          CLOUDY    68  48  48 E10       30.16R
BILLINGS       CLOUDY    70  45  40 N10       30.20R
LIVINGSTON     CLEAR     65  42  43 E9        30.27R
MILES CITY     CLOUDY    67  47  48 NE7       30.15R
EKALAKA          N/A     71  43  36 NE7       30.13R
FORSYTH          N/A     68  48  49 N5        30.16R
LAUREL           N/A     68  43  40 CALM      30.19R
ROUNDUP          N/A     67  44  43 N9        30.12R
$$

REGIONAL REPORTS...DAKOTAS

CITY           SKY/WX    TMP DP  RH WIND       PRES   REMARKS
WILLISTON      CLOUDY    63  48  58 N10       30.17R
MINOT          CLEAR     63  54  72 NW12      30.10R
DICKINSON      CLOUDY    65  48  54 N9        30.12R
CROSBY           N/A     50  48  93 NW7       30.21R
WATFORD CITY     N/A     63  48  59 NE9G16    30.17R
BISMARCK       PTCLDY    72  53  51 N10       30.06R
GRAND FORKS    CLOUDY    66  61  84 CALM      29.97S
FARGO          CLOUDY    74  68  81 E9        29.99S
BUFFALO SD       N/A     63  49  60 NE16      30.06S
RAPID CITY     CLEAR     58  50  75 NW7       30.08R
$$

REGIONAL REPORTS...WYOMING/IDAHO/WASHINGTON

CITY           SKY/WX    TMP DP  RH WIND       PRES   REMARKS
GILLETTE       CLEAR     52  40  63 W3        30.19R
SHERIDAN       CLOUDY    60  48  64 CALM      30.19R
BUFFALO WY     CLEAR     64  34  32 W7        30.26R
CODY           CLEAR     64  37  36 N5        30.27R
YELLOWSTONE LA   N/A     43  33  68 CALM      30.47S
IDAHO FALLS    CLOUDY    56  41  57 CALM      30.22R
SALMON         CLEAR    N/A N/A N/A MISG        N/A
BOISE          CLEAR     72  38  29 S8        30.05S
SPOKANE        PTCLDY    63  31  30 SW3       30.09S
$$

REGIONAL REPORTS...ALBERTA

CITY           SKY/WX    TMP DP  RH WIND       PRES   REMARKS
EDMONTON       PTCLDY    39  37  93 CALM      30.21S
CALGARY        CLOUDY    52  43  71 SE8       30.22S
LETHBRIDGE     CLEAR     43  41  93 S9G25     30.22F
MEDICINE HAT   MOCLDY    52  45  76 VRB2      30.24R
WATERTON GATE    N/A     41  39  93 W2          N/A
MILK RIVER       N/A     45  41  87 S2          N/A
ONEFOUR          N/A     50  43  76 NE12        N/A
$$

REGIONAL REPORTS...SASKATCHEWAN

CITY           SKY/WX    TMP DP  RH WIND       PRES   REMARKS
SWIFT CURRENT  CLEAR     45  43  93 VRB2      30.24R
REGINA         CLEAR     45  43  93 NW10      30.21R
SASKATOON      PTCLDY    41  41 100 W8        30.22R
CYPRESS HILLS    N/A     41  37  87 NE3         N/A
VAL MARIE        N/A     43  39  87 N5          N/A
ROCKGLEN         N/A     48  43  81 N8          N/A
ASSINIBOIA       N/A     39  39 100 S1          N/A
$$




USA.gov is the U.S. government's official web portal to all federal, state and local government web resources and services.